Powrót do katalogu

STARLINK-37200

AktywnyŁącznośćVLEO
NORAD 68339·PAYLOAD·🇺🇸 United States

Wystrzelony Mar 22, 2026 z Cape Canaveral Space Force Station

Loading…

Następne Przeloty (najbliższe 24 godziny)

TLE

ŚwieżeSource: CelesTrak SupGP

Epoka: Sep 14, 2026, 14:36 UTC

1 68339C 26059U   26257.60881944  .00042846  00000+0  12665-2 0  2575
2 68339  53.1587 188.9611 0001271  91.4124 324.0041 15.34353016    12

Śledź STARLINK-37200 w czasie rzeczywistym z AllMySat

Download on the App Store